When you browse on this site, cookies collect data to enhance your experience and personalize the content and advertising you see.
Visit our Privacy Policy to learn more. By continuing to use the site, you agree to this use of cookies and data.
  • en France
  • Liste des pays
  • À 7 jours
  • Température de l'eau
  • Carte satellitaire
  • Carte météo
  • Widgets météo
  • user-avatar
    Se connecter

    Météo par heure à Sevan

    Ce jour, 21 Novembre, Mercredi

    Heure Température Précipitation Vent Pression Humidité
    00:00 +4°C° 0 mm 2 m/s 640 mmHg 67%
    01:00 +4°C° 0 mm 2 m/s 640 mmHg 68%
    02:00 +4°C° 0 mm 2 m/s 639 mmHg 68%
    03:00 +4°C° 0 mm 2 m/s 639 mmHg 68%
    04:00 +4°C° 0 mm 2 m/s 639 mmHg 69%
    05:00 +4°C° 0 mm 2 m/s 639 mmHg 70%
    06:00 +3°C° 0 mm 2 m/s 639 mmHg 71%
    07:00 +4°C° 0 mm 2 m/s 639 mmHg 67%
    08:00 +5°C° 0 mm 2 m/s 639 mmHg 64%
    09:00 +7°C° 0 mm 2 m/s 639 mmHg 60%
    10:00 +7°C° 0 mm 3 m/s 639 mmHg 57%
    11:00 +8°C° 0 mm 3 m/s 638 mmHg 55%
    12:00 +9°C° 0 mm 3 m/s 638 mmHg 52%
    13:00 +9°C° 0 mm 3 m/s 638 mmHg 52%
    14:00 +9°C° 0 mm 3 m/s 638 mmHg 53%
    15:00 +9°C° 0 mm 3 m/s 638 mmHg 53%
    16:00 +8°C° 0.1 mm 3 m/s 637 mmHg 57%
    17:00 +7°C° 0.1 mm 2 m/s 637 mmHg 61%
    18:00 +6°C° 0.1 mm 2 m/s 637 mmHg 66%
    19:00 +5°C° 0.1 mm 2 m/s 637 mmHg 67%
    20:00 +5°C° 0.1 mm 2 m/s 637 mmHg 68%
    21:00 +5°C° 0.1 mm 2 m/s 637 mmHg 69%
    22:00 +5°C° 0.1 mm 2 m/s 637 mmHg 70%
    23:00 +5°C° 0.1 mm 2 m/s 637 mmHg 71%

    Demain, 22 Novembre, Jeudi

    Heure Température Précipitation Vent Pression Humidité
    00:00 +5°C° 0.1 mm 2 m/s 637 mmHg 72%
    01:00 +4°C° 0.2 mm 2 m/s 637 mmHg 73%
    02:00 +4°C° 0.2 mm 2 m/s 637 mmHg 74%
    03:00 +4°C° 0.2 mm 2 m/s 637 mmHg 75%
    04:00 +4°C° 0.3 mm 2 m/s 637 mmHg 76%
    05:00 +4°C° 0.3 mm 2 m/s 636 mmHg 77%
    06:00 +4°C° 0.3 mm 2 m/s 636 mmHg 78%
    07:00 +4°C° 0.4 mm 2 m/s 637 mmHg 77%
    08:00 +4°C° 0.4 mm 3 m/s 637 mmHg 76%
    09:00 +4°C° 0.4 mm 3 m/s 637 mmHg 75%
    10:00 +5°C° 0.3 mm 3 m/s 637 mmHg 73%
    11:00 +7°C° 0.3 mm 3 m/s 637 mmHg 70%
    12:00 +7°C° 0.3 mm 3 m/s 636 mmHg 68%
    13:00 +7°C° 0.2 mm 3 m/s 636 mmHg 68%
    14:00 +7°C° 0.2 mm 3 m/s 636 mmHg 68%
    15:00 +7°C° 0.2 mm 3 m/s 636 mmHg 68%
    16:00 +7°C° 0.3 mm 3 m/s 636 mmHg 71%
    17:00 +6°C° 0.3 mm 2 m/s 636 mmHg 74%
    18:00 +6°C° 0.3 mm 2 m/s 636 mmHg 77%
    19:00 +5°C° 0.4 mm 2 m/s 636 mmHg 78%
    20:00 +5°C° 0.4 mm 2 m/s 636 mmHg 79%
    21:00 +5°C° 0.4 mm 2 m/s 637 mmHg 80%
    22:00 +5°C° 0.3 mm 2 m/s 637 mmHg 81%
    23:00 +5°C° 0.3 mm 2 m/s 637 mmHg 81%

    Après-demain, 23 Novembre, Vendredi

    Heure Température Précipitation Vent Pression Humidité
    00:00 +6°C° 0.3 mm 1 m/s 637 mmHg 82%
    01:00 +6°C° 0.2 mm 1 m/s 637 mmHg 82%
    02:00 +5°C° 0.2 mm 1 m/s 637 mmHg 82%
    03:00 +5°C° 0.2 mm 1 m/s 637 mmHg 82%
    04:00 +5°C° 0.2 mm 1 m/s 637 mmHg 82%
    05:00 +5°C° 0.2 mm 1 m/s 637 mmHg 82%
    06:00 +5°C° 0.2 mm 1 m/s 637 mmHg 82%
    07:00 +5°C° 0.2 mm 1 m/s 638 mmHg 80%
    08:00 +5°C° 0.2 mm 2 m/s 638 mmHg 77%
    09:00 +6°C° 0.2 mm 2 m/s 639 mmHg 74%
    10:00 +6°C° 0.1 mm 2 m/s 639 mmHg 72%
    11:00 +7°C° 0.1 mm 2 m/s 639 mmHg 69%
    12:00 +8°C° 0.1 mm 2 m/s 639 mmHg 67%
    13:00 +8°C° 0.1 mm 2 m/s 639 mmHg 66%
    14:00 +8°C° 0.1 mm 2 m/s 639 mmHg 65%
    15:00 +8°C° 0.1 mm 2 m/s 639 mmHg 64%
    16:00 +7°C° 0.1 mm 2 m/s 639 mmHg 67%
    17:00 +7°C° 0.1 mm 1 m/s 639 mmHg 70%
    18:00 +6°C° 0.1 mm 1 m/s 639 mmHg 73%
    19:00 +5°C° 0.1 mm 1 m/s 640 mmHg 74%
    20:00 +5°C° 0.1 mm 1 m/s 640 mmHg 74%
    21:00 +5°C° 0.1 mm 1 m/s 641 mmHg 75%
    22:00 +5°C° 0 mm 1 m/s 641 mmHg 77%
    23:00 +4°C° 0 mm 1 m/s 641 mmHg 78%

    24 Novembre, Samedi

    Heure Température Précipitation Vent Pression Humidité
    00:00 +4°C° 0 mm 1 m/s 642 mmHg 80%
    01:00 +4°C° 0 mm 1 m/s 642 mmHg 81%
    02:00 +4°C° 0 mm 1 m/s 642 mmHg 81%
    03:00 +3°C° 0 mm 2 m/s 642 mmHg 82%
    04:00 +3°C° 0 mm 2 m/s 643 mmHg 83%
    05:00 +2°C° 0 mm 2 m/s 643 mmHg 84%
    06:00 +2°C° 0 mm 2 m/s 643 mmHg 85%
    07:00 +3°C° 0 mm 2 m/s 644 mmHg 82%
    08:00 +3°C° 0 mm 2 m/s 644 mmHg 78%
    09:00 +4°C° 0 mm 2 m/s 645 mmHg 75%
    10:00 +5°C° 0 mm 2 m/s 645 mmHg 72%
    11:00 +5°C° 0 mm 2 m/s 645 mmHg 69%
    12:00 +6°C° 0 mm 2 m/s 645 mmHg 66%
    13:00 +6°C° 0 mm 2 m/s 645 mmHg 66%
    14:00 +6°C° 0 mm 2 m/s 645 mmHg 67%
    15:00 +6°C° 0 mm 2 m/s 645 mmHg 67%
    16:00 +5°C° 0.1 mm 2 m/s 645 mmHg 70%
    17:00 +4°C° 0.1 mm 2 m/s 646 mmHg 73%
    18:00 +3°C° 0.1 mm 2 m/s 646 mmHg 77%
    19:00 +3°C° 0 mm 2 m/s 646 mmHg 78%
    20:00 +3°C° 0 mm 2 m/s 646 mmHg 79%
    21:00 +2°C° 0 mm 2 m/s 646 mmHg 80%
    22:00 +2°C° 0 mm 2 m/s 646 mmHg 80%
    23:00 +3°C° 0 mm 1 m/s 646 mmHg 80%

    25 Novembre, Dimanche

    Heure Température Précipitation Vent Pression Humidité
    00:00 +3°C° 0 mm 1 m/s 645 mmHg 80%
    01:00 +3°C° 0 mm 1 m/s 645 mmHg 80%
    02:00 +2°C° 0 mm 1 m/s 644 mmHg 81%
    03:00 +2°C° 0 mm 1 m/s 644 mmHg 82%
    04:00 +2°C° 0 mm 1 m/s 644 mmHg 81%
    05:00 +2°C° 0 mm 1 m/s 643 mmHg 81%
    06:00 +2°C° 0 mm 1 m/s 643 mmHg 81%
    07:00 +3°C° 0 mm 1 m/s 643 mmHg 76%
    08:00 +4°C° 0 mm 1 m/s 643 mmHg 72%
    09:00 +5°C° 0 mm 1 m/s 643 mmHg 68%
    10:00 +5°C° 0 mm 1 m/s 642 mmHg 65%
    11:00 +6°C° 0 mm 1 m/s 642 mmHg 62%
    12:00 +7°C° 0 mm 1 m/s 641 mmHg 59%
    13:00 +7°C° 0 mm 1 m/s 640 mmHg 59%
    14:00 +8°C° 0 mm 1 m/s 640 mmHg 58%
    15:00 +8°C° 0 mm 1 m/s 640 mmHg 58%
    16:00 +6°C° 0 mm 1 m/s 639 mmHg 61%
    17:00 +5°C° 0 mm 1 m/s 639 mmHg 64%
    18:00 +4°C° 0 mm 1 m/s 639 mmHg 67%
    19:00 +4°C° 0 mm 1 m/s 638 mmHg 67%
    20:00 +3°C° 0 mm 1 m/s 638 mmHg 66%
    21:00 +3°C° 0 mm 1 m/s 638 mmHg 66%
    22:00 +3°C° 0 mm 1 m/s 638 mmHg 65%
    23:00 +3°C° 0 mm 1 m/s 638 mmHg 65%

    26 Novembre, Lundi

    Heure Température Précipitation Vent Pression Humidité
    00:00 +3°C° 0 mm 1 m/s 638 mmHg 64%
    01:00 +3°C° 0 mm 1 m/s 638 mmHg 64%
    02:00 +3°C° 0 mm 1 m/s 638 mmHg 65%
    03:00 +2°C° 0 mm 1 m/s 638 mmHg 65%
    04:00 +2°C° 0.1 mm 1 m/s 638 mmHg 66%
    05:00 +2°C° 0.1 mm 1 m/s 638 mmHg 68%
    06:00 +2°C° 0.1 mm 1 m/s 638 mmHg 69%
    07:00 +3°C° 0.1 mm 1 m/s 638 mmHg 67%
    08:00 +4°C° 0.1 mm 1 m/s 639 mmHg 66%
    09:00 +5°C° 0.1 mm 1 m/s 639 mmHg 64%
    10:00 +5°C° 0 mm 2 m/s 639 mmHg 62%
    11:00 +5°C° 0 mm 2 m/s 639 mmHg 61%
    12:00 +6°C° 0 mm 2 m/s 638 mmHg 59%
    13:00 +6°C° 0 mm 2 m/s 638 mmHg 59%
    14:00 +6°C° 0 mm 2 m/s 638 mmHg 59%
    15:00 +6°C° 0 mm 2 m/s 638 mmHg 59%
    16:00 +5°C° 0 mm 2 m/s 638 mmHg 63%
    17:00 +4°C° 0 mm 2 m/s 638 mmHg 66%
    18:00 +3°C° 0 mm 2 m/s 638 mmHg 70%
    19:00 +2°C° 0 mm 2 m/s 638 mmHg 71%
    20:00 +2°C° 0 mm 2 m/s 639 mmHg 71%
    21:00 +2°C° 0 mm 2 m/s 639 mmHg 72%
    22:00 +2°C° 0 mm 2 m/s 639 mmHg 72%
    23:00 +1°C° 0 mm 2 m/s 639 mmHg 73%
    Voir plus